User: anonymous   Login
Location: Peebles
(55.6412°N, 3.1714°W)
Time: 00:18:21
(UTC+00:00)
Language:

ERS-1 Rocket - Orbit

View from above orbital plane
View from above orbital plane
View from above satellite
View from above satellite

Ground track
Ground track

The orbit data is extracted from the following two-line orbital elements,

1 21610U 91050F   21331.14092769  .00000042  00000-0  26617-4 0  9995
2 21610  98.4074  39.3451 0004361 110.6504 279.4453 14.40980249593697
Epoch (UTC): 27 November 2021 03:22:56
Eccentricity: 0.0004361
inclination: 98.4074°
perigee height: 752 km
apogee height: 758 km
right ascension of ascending node: 39.3451°
argument of perigee: 110.6504°
revolutions per day: 14.40980249
mean anomaly at epoch: 279.4453°
orbit number at epoch: 59369

The dashed part of the orbit path shows where the satellite is in the earth's shadow,  

DLR